KGWB

Details ICAO KGWB
Name DE KALB CO
Region United States
Timezone America/Indiana/Indianapolis (UTC-4.0)
Plans Departing 1
Arriving 1
Stats Elevation 880 ft / 268 m (AMSL)
Location 41.307162° -85.064350°
Runways 1
Magnetic Variation 5.849° W
Sunrise 2018-05-23 10:16:14 UTC / 2018-05-23 06:16:14 Local
Sunset 2018-05-24 01:00:41 UTC / 2018-05-23 21:00:41 Local
Advertisement - Login to hide

Runways

ID Width Length Bearing (true) Bearing (mag) Surface Threshold Offset Overrun Length
09 100 ft / 30 m 4,988 ft / 1,520 m 89.31° 95.16° Asphalt 0 ft / 0 m 0 ft / 0 m
27 100 ft / 30 m 4,988 ft / 1,520 m 269.32° 275.17° Asphalt 275 ft / 84 m 0 ft / 0 m

Approach Navaids

Runway Type Ident Frequency Range Bearing (true) Bearing (mag) Slope Elevation
27 Localiser GWB 108.95 MHz 18 nm / 33 km 269.31° 275.16° - 860 ft / 262 m (AMSL)
27 Glidescope GWB 108.95 MHz 10 nm / 19 km 269.32° 275.17° 3.00° 878 ft / 268 m (AMSL)

Map

Weather


0- 5 10 15 20 25 30 35+ Temperature / ° C

Clouds and Precipitation
Forecast for 2018-05-23 12:00 UTC. Updated 25 minutes ago

Ground ~20,000 ft ~40,000 ft Winds

METAR

KGWB 230935Z AUTO 00000KT 10SM CLR 11/11 A3013 RMK AO2

TAF

Not found

Frequencies

Recorded 124.15 MHz AWOS 3
Clearance 126.60 MHz CLNC DEL
Approach 132.15 MHz FORT WAYNE APP/DEP
Unicom 123.00 MHz CTAF/UNICOM
Approach 127.20 MHz FORT WAYNE APP/DEP
Warning: Do not use this data for real-world aviation or navigation. No guarantee of current accuracy is given.